[[{"header":{"parameterUnit":"m.s-1","parameterCategory":1,"la1":30.2991,"la2":30.254,"lo1":-89.0895,"lo2":-89.0444,"dy":0.0017,"dx":0.0017,"nx":28,"ny":28,"refTime":"2024-12-14T03:00:00:Z","depth":0,"parameterNumber":2,"parameterNumberName":"U-component_of_WINDS"},"data":[0,0,0,0,0,0,0,0,0,0,0,0,0,0,0,0,0,0,0,0,0,0,0,0,0,0,0,0,0,0,0,0,0,0,0,0,0,0,0,0,0,0,0,0,0,0,0,0,0,0,0,0,0,0,0,0,0,0,-5.7994,-5.7994,0,-5.8043,-5.8044,-5.8044,-5.7881,-5.7877,-5.7872,-5.7867,-5.792,-5.7926,-5.7932,0,0,0,0,0,0,0,0,0,0,0,0,0,-5.7758,-5.7764,-5.7993,-5.7994,-5.7995,-5.8043,-5.8044,-5.8045,-5.7882,-5.7876,-5.787,-5.7865,-5.7918,-5.7926,-5.7933,0,0,0,0,0,0,0,0,0,0,0,0,0,-5.784,-5.7765,-5.7993,-5.792,-5.7913,-5.8043,-5.8044,-5.8045,-5.7884,-5.7876,-5.7869,-5.7862,-5.7916,-5.7925,-5.7934,-5.8138,0,0,-5.7961,-5.7965,0,0,0,0,0,0,0,0,-5.7835,-5.7849,-5.793,-5.7925,-5.7918,-5.7948,-5.798,-5.8076,-5.7885,-5.7895,-5.7867,-5.7858,-5.7936,-5.7943,-5.7969,-5.814,-5.8143,-5.7962,-5.7968,-5.7972,-5.7974,0,0,0,0,0,0,0,-5.783,-5.7846,-5.8013,-5.7931,-5.7924,-5.7884,-5.7887,-5.7998,-5.7957,-5.7894,-5.7882,-5.789,-5.7931,-5.796,-5.7969,-5.8143,-5.7962,-5.797,-5.7976,-5.7979,-5.8483,-5.8491,0,0,0,0,0,0,-5.7834,-5.7842,-5.8012,-5.8015,-5.7858,-5.7894,-5.7898,-5.7946,-5.7955,-5.7949,-5.7896,-5.7882,-5.7948,-5.7958,-5.797,-5.8208,-5.7972,-5.798,-5.7985,-5.8475,-5.8485,-5.8493,0,0,0,0,0,0,-5.7829,-5.785,-5.801,-5.7925,-5.7942,-5.7906,-5.7962,-5.7951,-5.798,-5.7957,-5.7949,-5.7933,-5.7943,-5.7957,-5.8097,-5.8208,-5.7984,-5.7992,-5.8466,-5.8478,-5.8489,-5.8688,0,0,0,0,0,0,-5.7823,-5.785,-5.7927,-5.7928,-5.7947,-5.8136,-5.7969,-5.7958,-5.7996,-5.7978,-5.7989,-5.7984,-5.7938,-5.8084,-5.8106,-5.8216,-5.7999,-5.8456,-5.8471,-5.8485,-5.8671,-5.8705,-5.8734,0,0,0,0,0,-5.7815,-5.7982,-5.7932,-5.7953,-5.8043,-5.8143,-5.8154,-5.8097,-5.8005,-5.8083,-5.8067,-5.7984,-5.8192,-5.81,-5.8123,-5.8238,-5.8448,-5.8467,-5.8484,-5.8657,-5.8699,-5.8734,0,0,0,0,0,0,-5.7997,-5.7981,-5.7925,-5.8097,-5.8122,-5.8115,-5.8211,-5.8143,-5.8196,-5.8177,-5.8104,-5.8108,-5.8261,-5.8263,-5.816,-5.8435,-5.8304,-5.8328,-5.8428,-5.8467,-5.8498,-5.8495,-5.8007,0,0,0,0,0,-5.8056,-5.8138,-5.812,-5.8273,-5.8289,-5.8248,-5.8289,-5.8243,-5.8267,-5.8277,-5.8272,-5.8299,-5.8369,-5.8418,-5.8483,-5.867,-5.867,-5.876,-5.8792,-5.8818,-5.8839,-5.8938,-5.8977,-5.8552,-5.8552,-5.8552,0,0,-5.8181,-5.8182,-5.8239,-5.831,-5.8324,-5.841,-5.8258,-5.8357,-5.842,-5.8292,-5.8423,-5.8421,-5.8445,-5.861,-5.8682,-5.8616,-5.8956,-5.8841,-5.8862,-5.8869,-5.896,-5.9,-5.9036,-5.8564,-5.8562,-5.856,0,0,-5.8452,-5.8462,-5.859,-5.8607,-5.8629,-5.8601,-5.8632,-5.8635,-5.8628,-5.8758,-5.8663,-5.8737,-5.8862,-5.8883,-5.891,-5.9187,-5.9112,-5.921,-5.9375,-5.9472,-5.9505,-5.9535,-5.9633,-5.967,-5.9231,-5.9232,-5.9232,0,-5.8605,-5.8731,-5.8664,-5.8769,-5.8802,-5.8689,-5.8818,-5.8838,-5.8881,-5.8907,-5.8832,-5.8985,-5.8994,-5.9161,-5.9228,-5.9254,-5.9287,-5.9209,-5.9506,-5.9534,-5.9561,-5.9654,-5.9691,-5.9244,-5.9242,-5.9241,-5.924,0,-5.8916,-5.9005,-5.9106,-5.9149,-5.9194,-5.9311,-5.9262,-5.9316,-5.9265,-5.9244,-5.9378,-5.9384,-5.9447,-5.9483,-5.9435,-5.9643,-5.9601,-5.9518,-5.9385,-5.9614,-5.9701,-5.9736,-5.926,-5.9256,-5.9253,-5.925,0,0,-5.9305,-5.9309,-5.9347,-5.9364,-5.938,-5.9448,-5.9559,-5.9619,-5.9666,-5.9699,-5.979,-5.9897,-5.9819,-5.985,-5.9803,-5.9888,-6.0106,-5.9793,-5.9792,-5.9851,-6.0335,-6.0399,-6.0441,-6.0056,-6.0062,-6.0067,-6.0333,0,-5.9572,-5.9761,-5.9703,-5.9894,-5.9975,-5.9867,-5.9963,-5.9983,-5.9967,-6.0033,-6.0014,-6.0091,-5.9982,-6.0,-6.0079,-6.0063,-6.0202,-6.0043,-6.014,-6.0144,-6.0138,-6.0486,-6.0554,-6.0804,-6.0366,-6.0372,-6.0376,0,-5.9909,-5.9954,-6.0152,-6.0153,-6.0184,-6.0272,-6.0322,-6.0386,-6.0407,-6.0388,-6.0422,-6.0357,-6.0465,-6.0332,-6.048,-6.0373,-6.0409,-6.0407,-6.0415,-6.0423,-6.0275,-6.0503,-6.0883,-6.0921,-6.0429,-6.0424,-6.0421,0,-6.0172,-6.0282,-6.0414,-6.0433,-6.0437,-6.0501,-6.0506,-6.0519,-6.0558,-6.0602,-6.0627,-6.0683,-6.0714,-6.0759,-6.0711,-6.0618,-6.0866,-6.0729,-6.0854,-6.0856,-6.0912,-6.0909,-6.1303,-6.0935,-6.0935,-6.0934,-6.0933,0,-6.0476,-6.0602,-6.0533,-6.0615,-6.0752,-6.0684,-6.0822,-6.0814,-6.0826,-6.0905,-6.0815,-6.089,-6.0821,-6.0891,-6.0853,-6.0981,-6.0996,-6.0984,-6.0973,-6.0993,-6.0995,-6.1016,-6.0998,-6.0944,-6.0942,-6.094,-6.0938,0,-6.0794,-6.0753,-6.089,-6.0882,-6.0883,-6.0985,-6.0978,-6.1053,-6.1028,-6.1129,-6.1148,-6.1111,-6.1187,-6.1143,-6.1222,-6.1196,-6.1363,-6.1328,-6.1356,-6.1347,-6.1475,-6.1463,-6.1896,-6.1949,-6.1548,-6.1552,-6.1555,0,-6.0991,-6.1085,-6.1087,-6.1132,-6.1142,-6.1217,-6.1256,-6.1193,-6.1238,-6.1267,-6.1338,-6.1407,-6.1458,-6.1585,-6.1565,-6.1625,-6.159,-6.1738,-6.1599,-6.1615,-6.1592,-6.1588,-6.1596,-6.1767,-6.1771,-6.1775,-6.1778,0,-6.1345,-6.132,-6.1379,-6.1432,-6.1481,-6.152,-6.1551,-6.1593,-6.153,-6.1585,-6.1661,-6.1701,-6.178,-6.1849,-6.1899,-6.1904,-6.1832,-6.1822,-6.1854,-6.1875,-6.1888,-6.1882,-6.1433,-6.1812,-6.1809,-6.1807,-6.1805,-6.1803,-6.1609,-6.1686,-6.1699,-6.1768,-6.1785,-6.1815,-6.1885,-6.1869,-6.1931,-6.199,-6.1949,-6.204,-6.2056,-6.2115,-6.2129,-6.2199,-6.2139,-6.2186,-6.2198,-6.221,-6.2228,-6.1876,-6.2208,-6.2206,-6.2205,-6.2205,-6.2204,0,-6.1958,-6.196,-6.2024,-6.207,-6.2124,-6.2049,-6.2079,-6.213,-6.221,-6.2231,-6.2283,-6.237,-6.2436,-6.2421,-6.248,-6.2539,-6.2507,-6.2557,-6.2552,-6.2554,-6.2278,-6.2244,-6.2581,-6.2581,-6.2581,-6.2581,-6.2581,-6.2581,-6.2146,-6.2273,-6.2249,-6.2383,-6.2384,-6.2471,-6.2495,-6.2523,-6.2539,-6.264,-6.2694,-6.2683,-6.2689,-6.2748,-6.2805,-6.2798,-6.2824,-6.2887,-6.2868,-6.2611,-6.2574,-6.2538,-6.2506,-6.2893,-6.2893,-6.3138,-6.3141,-6.3142]},{"header":{"parameterUnit":"m.s-1","parameterCategory":1,"la1":30.2991,"la2":30.254,"lo1":-89.0895,"lo2":-89.0444,"dy":0.0017,"dx":0.0017,"nx":28,"ny":28,"refTime":"2024-12-14T03:00:00:Z","depth":0,"parameterNumber":3,"parameterNumberName":"V-component_of_WINDS"},"data":[0,0,0,0,0,0,0,0,0,0,0,0,0,0,0,0,0,0,0,0,0,0,0,0,0,0,0,0,0,0,0,0,0,0,0,0,0,0,0,0,0,0,0,0,0,0,0,0,0,0,0,0,0,0,0,0,0,0,-1.9812,-1.9813,0,-1.9843,-1.9843,-1.9844,-1.9822,-1.9821,-1.982,-1.9819,-1.9851,-1.9852,-1.9854,0,0,0,0,0,0,0,0,0,0,0,0,0,-1.9734,-1.9736,-1.9812,-1.9813,-1.9813,-1.9843,-1.9843,-1.9844,-1.9822,-1.9821,-1.982,-1.9819,-1.985,-1.9852,-1.9854,0,0,0,0,0,0,0,0,0,0,0,0,0,-1.9767,-1.9736,-1.9812,-1.9806,-1.9806,-1.9843,-1.9843,-1.9844,-1.9823,-1.9821,-1.982,-1.9818,-1.985,-1.9852,-1.9855,-1.99,0,0,-1.9863,-1.9864,0,0,0,0,0,0,0,0,-1.9765,-1.977,-1.9807,-1.9807,-1.9806,-1.9827,-1.9827,-1.9863,-1.9823,-1.9816,-1.9819,-1.9818,-1.9844,-1.9847,-1.9856,-1.9901,-1.9902,-1.9863,-1.9864,-1.9866,-1.9866,0,0,0,0,0,0,0,-1.9763,-1.9768,-1.9825,-1.9807,-1.9807,-1.9801,-1.9804,-1.9834,-1.9838,-1.9817,-1.9815,-1.9819,-1.9844,-1.9854,-1.9857,-1.9903,-1.9863,-1.9865,-1.9867,-1.9868,-1.9985,-1.9987,0,0,0,0,0,0,-1.9761,-1.9767,-1.9824,-1.9825,-1.9782,-1.9804,-1.9807,-1.9822,-1.9838,-1.9839,-1.982,-1.9818,-1.985,-1.9854,-1.9858,-1.991,-1.9866,-1.9868,-1.9869,-1.9984,-1.9985,-1.9987,0,0,0,0,0,0,-1.976,-1.9767,-1.9822,-1.9796,-1.9802,-1.9807,-1.9824,-1.9823,-1.9833,-1.984,-1.9841,-1.983,-1.9849,-1.9854,-1.9889,-1.9911,-1.9869,-1.9871,-1.9982,-1.9984,-1.9986,-2.0017,0,0,0,0,0,0,-1.9758,-1.9766,-1.9784,-1.9796,-1.9804,-1.9854,-1.9825,-1.9825,-1.9838,-1.9835,-1.9849,-1.985,-1.9848,-1.9885,-1.9892,-1.9914,-1.9874,-1.998,-1.9983,-1.9986,-2.0014,-2.002,-2.0025,0,0,0,0,0,-1.9755,-1.9791,-1.9785,-1.9792,-1.9826,-1.9855,-1.9859,-1.9856,-1.984,-1.9857,-1.9861,-1.985,-1.9908,-1.9889,-1.9896,-1.9919,-1.9978,-1.9982,-1.9985,-2.0011,-2.0019,-2.0025,0,0,0,0,0,0,-1.9781,-1.9793,-1.9786,-1.9827,-1.984,-1.9851,-1.9873,-1.9864,-1.9882,-1.9879,-1.9874,-1.9878,-1.9914,-1.992,-1.9899,-1.9963,-1.994,-1.9945,-1.9958,-1.9965,-1.997,-1.9968,-1.9876,0,0,0,0,0,-1.9792,-1.9815,-1.9824,-1.986,-1.9866,-1.9869,-1.9881,-1.9878,-1.9891,-1.9896,-1.9903,-1.9916,-1.9937,-1.9952,-1.9972,-2.0015,-2.0017,-2.0034,-2.004,-2.0044,-2.0048,-2.007,-2.0078,-1.9999,-1.9999,-1.9998,0,0,-1.9814,-1.9823,-1.9838,-1.9865,-1.9875,-1.9898,-1.9873,-1.9899,-1.9916,-1.99,-1.9933,-1.9939,-1.9953,-1.9992,-2.001,-1.9999,-2.0071,-2.0049,-2.0052,-2.0054,-2.0075,-2.0082,-2.0089,-2.0001,-2.0001,-2.0,0,0,-1.9867,-1.9876,-1.9907,-1.9917,-1.9931,-1.9932,-1.994,-1.9952,-1.9955,-1.9988,-1.9976,-1.9996,-2.0033,-2.0043,-2.0053,-2.0108,-2.0098,-2.0115,-2.0144,-2.0166,-2.0172,-2.0177,-2.0196,-2.0203,-2.0119,-2.012,-2.012,0,-1.9893,-1.9927,-1.9923,-1.995,-1.9961,-1.9948,-1.9978,-1.9988,-2.0008,-2.0016,-2.0003,-2.0048,-2.0057,-2.0098,-2.0111,-2.012,-2.0128,-2.0113,-2.0171,-2.0177,-2.0182,-2.02,-2.0207,-2.0121,-2.0121,-2.0121,-2.0121,0,-1.9958,-1.9982,-2.0004,-2.0024,-2.0038,-2.0067,-2.0066,-2.0081,-2.0076,-2.0079,-2.0112,-2.0122,-2.0143,-2.0153,-2.0148,-2.0192,-2.0185,-2.0172,-2.0149,-2.0191,-2.0208,-2.0215,-2.0124,-2.0123,-2.0123,-2.0122,0,0,-2.0028,-2.0044,-2.0052,-2.006,-2.0075,-2.0094,-2.0121,-2.0141,-2.0154,-2.0168,-2.019,-2.0221,-2.0209,-2.0221,-2.0217,-2.0236,-2.0278,-2.0221,-2.0221,-2.023,-2.0326,-2.0335,-2.0343,-2.0271,-2.0273,-2.0274,-2.0324,0,-2.008,-2.0127,-2.0124,-2.0168,-2.019,-2.0177,-2.02,-2.0212,-2.0214,-2.0233,-2.0236,-2.0258,-2.024,-2.0247,-2.0265,-2.0269,-2.0297,-2.0265,-2.0291,-2.0292,-2.0287,-2.0352,-2.0362,-2.0409,-2.0331,-2.0332,-2.0333,0,-2.0147,-2.0163,-2.021,-2.022,-2.0229,-2.025,-2.0268,-2.0286,-2.0299,-2.0299,-2.0312,-2.0305,-2.0332,-2.0308,-2.0345,-2.0324,-2.0334,-2.0337,-2.0339,-2.0341,-2.0315,-2.0354,-2.0424,-2.0431,-2.0343,-2.0342,-2.0342,0,-2.0192,-2.0226,-2.0257,-2.0265,-2.0278,-2.0293,-2.0299,-2.031,-2.0322,-2.0338,-2.0346,-2.0364,-2.0374,-2.0389,-2.0387,-2.0371,-2.0424,-2.0401,-2.0425,-2.0425,-2.0436,-2.0435,-2.0508,-2.0444,-2.0444,-2.0444,-2.0444,0,-2.025,-2.0279,-2.0278,-2.0297,-2.0329,-2.0324,-2.0355,-2.036,-2.037,-2.0389,-2.0379,-2.0398,-2.0395,-2.0414,-2.0413,-2.0442,-2.0447,-2.0448,-2.0447,-2.0449,-2.0448,-2.0455,-2.0451,-2.0446,-2.0446,-2.0445,-2.0445,0,-2.0306,-2.0306,-2.034,-2.0349,-2.0352,-2.0375,-2.0383,-2.0401,-2.0402,-2.0427,-2.0433,-2.0436,-2.0457,-2.0457,-2.0481,-2.0481,-2.0517,-2.0513,-2.0513,-2.0511,-2.0535,-2.0532,-2.0613,-2.0623,-2.0554,-2.0555,-2.0556,0,-2.0342,-2.0364,-2.0376,-2.0388,-2.0395,-2.0415,-2.0427,-2.0424,-2.0436,-2.0452,-2.0468,-2.0488,-2.0504,-2.0539,-2.0543,-2.0561,-2.0557,-2.0584,-2.056,-2.056,-2.0556,-2.0554,-2.0556,-2.0588,-2.0589,-2.059,-2.059,0,-2.0407,-2.0406,-2.0424,-2.0441,-2.0456,-2.0469,-2.0482,-2.0493,-2.049,-2.0505,-2.0527,-2.0539,-2.0564,-2.0584,-2.0601,-2.0607,-2.0598,-2.0598,-2.0604,-2.0605,-2.0604,-2.0604,-2.0525,-2.0596,-2.0595,-2.0595,-2.0595,-2.0595,-2.0454,-2.0472,-2.0482,-2.0502,-2.0511,-2.0523,-2.054,-2.0543,-2.0561,-2.058,-2.0577,-2.0601,-2.0612,-2.0634,-2.0642,-2.066,-2.0651,-2.066,-2.0663,-2.0665,-2.0667,-2.0602,-2.0664,-2.0664,-2.0663,-2.0663,-2.0663,0,-2.0517,-2.0523,-2.0541,-2.0558,-2.0574,-2.0564,-2.0577,-2.059,-2.0611,-2.0622,-2.0638,-2.0662,-2.0681,-2.0686,-2.0705,-2.0718,-2.0714,-2.0723,-2.0722,-2.0723,-2.0675,-2.0667,-2.0726,-2.0726,-2.0726,-2.0726,-2.0726,-2.0726,-2.0551,-2.0581,-2.0581,-2.0615,-2.062,-2.0643,-2.0651,-2.0662,-2.067,-2.0698,-2.0713,-2.0716,-2.0725,-2.0744,-2.0761,-2.0762,-2.0768,-2.0779,-2.0778,-2.0733,-2.0726,-2.072,-2.0713,-2.078,-2.078,-2.0824,-2.0825,-2.0825]}]]